HISTORICAL SENSOR DATA

Sensor Data Report

DB LIVE
CURRENT TIME--:--:--
DEVICE NETWORK Gateway Status
13 ESP · realtime ~1s · history 60s
Weather WS-MOD-01
ONLINE
Actuator ACT-MOD-01
OFFLINE
Mainboard L3 MB-L3-01
ONLINE
Mainboard L5 MB-L5-01
ONLINE
Remote AC AC-REMOTE-01
ONLINE
PZEM L3-01 PWR-L3-01
OFFLINE
PZEM L3-02 PWR-L3-02
OFFLINE
PZEM L3-03 PWR-L3-03
OFFLINE
PZEM L3-04 PWR-L3-04
OFFLINE
PZEM L5-01 PWR-L5-01
ONLINE
PZEM L5-02 PWR-L5-02
ONLINE
PZEM L5-03 PWR-L5-03
OFFLINE
PZEM L5-04 PWR-L5-04
OFFLINE
REPORT FILTER

Periode & Sensor

DATABASE HISTORY
RESET
QUICK RANGE Hari ini 7 hari 30 hari
PERIODE08 Aug 2026sampai 06 Sep 2026
TOTAL DATA67,817sensor readings
MINIMUM-0.50sesuai filter
AVERAGE84.86sesuai filter
MAXIMUM32,564.20sesuai filter
REPORT RESULT

Data Sensor

08/08/2026 — 06/09/2026 EXPORT CSV
NOTANGGALWAKTUDEVICECHANNELSENSORVALUEUNIT
3801 06/09/2026 23:03:00 PWR-L5-02Power Meter L5 PZEM 02 PZEM-L5-02-CURR PZEM L5-02 Current 0.00 A
3802 06/09/2026 23:03:00 MB-L3-01Mainboard Lantai 3 L3-LUX-06 Illuminance / LUX 6 0.30 lux
3803 06/09/2026 23:03:00 WS-MOD-01Weather Station Module WS-PRES Tekanan Udara 912.00 hPa
3804 06/09/2026 23:03:00 MB-L5-01Mainboard Lantai 5 L5-SHT-02-T SHT20 2 Temperature 29.20 °C
3805 06/09/2026 23:03:00 MB-L3-01Mainboard Lantai 3 L3-LUX-04 Illuminance / LUX 4 0.10 lux
3806 06/09/2026 23:03:00 AC-REMOTE-01Remote AC AC-SETPOINT AC Set Temperature 23.00 °C
3807 06/09/2026 23:03:00 PWR-L5-01Power Meter L5 PZEM 01 PZEM-L5-01-POWER PZEM L5-01 Active Power 10.20 W
3808 06/09/2026 23:03:00 MB-L3-01Mainboard Lantai 3 L3-AI-01 Analog Input 1 3.12 V
3809 06/09/2026 23:03:00 MB-L5-01Mainboard Lantai 5 L5-SHT-03-RH SHT20 3 Humidity 44.80 %RH
3810 06/09/2026 23:03:00 MB-L3-01Mainboard Lantai 3 L3-SHT-02-RH SHT20 2 Humidity 44.50 %RH
3811 06/09/2026 23:03:00 MB-L5-01Mainboard Lantai 5 L5-SHT-01-T SHT20 1 Temperature 29.00 °C
3812 06/09/2026 23:03:00 MB-L3-01Mainboard Lantai 3 L3-SHT-03-RH SHT20 3 Humidity 44.70 %RH
3813 06/09/2026 23:03:00 MB-L5-01Mainboard Lantai 5 L5-LUX-03 Illuminance / LUX 3 0.20 lux
3814 06/09/2026 23:03:00 MB-L5-01Mainboard Lantai 5 L5-SHT-03-T SHT20 3 Temperature 29.20 °C
3815 06/09/2026 23:03:00 MB-L3-01Mainboard Lantai 3 L3-AI-06 Analog Input 6 3.12 V
3816 06/09/2026 23:03:00 MB-L5-01Mainboard Lantai 5 L5-AI-03 Analog Input 3 3.05 V
3817 06/09/2026 23:03:00 MB-L5-01Mainboard Lantai 5 L5-SHT-02-RH SHT20 2 Humidity 44.70 %RH
3818 06/09/2026 23:03:00 PWR-L5-02Power Meter L5 PZEM 02 PZEM-L5-02-FREQ PZEM L5-02 Frequency 50.00 Hz
3819 06/09/2026 23:03:00 MB-L3-01Mainboard Lantai 3 L3-RAD-01 Radiation 1 1.00 W/m²
3820 06/09/2026 23:03:00 PWR-L5-01Power Meter L5 PZEM 01 PZEM-L5-01-ENERGY PZEM L5-01 Energy 0.05 kWh
3821 06/09/2026 23:03:00 MB-L5-01Mainboard Lantai 5 L5-BGT-02 Black Globe Temperature 2 27.00 °C
3822 06/09/2026 23:03:00 PWR-L5-02Power Meter L5 PZEM 02 PZEM-L5-02-VOLT PZEM L5-02 Voltage 227.20 V
3823 06/09/2026 23:03:00 MB-L5-01Mainboard Lantai 5 L5-AI-06 Analog Input 6 3.05 V
3824 06/09/2026 23:03:00 AC-REMOTE-01Remote AC AC-POWER AC Power State 1.00 state
3825 06/09/2026 23:03:00 MB-L3-01Mainboard Lantai 3 L3-AI-04 Analog Input 4 3.12 V
3826 06/09/2026 23:03:00 MB-L3-01Mainboard Lantai 3 L3-LUX-05 Illuminance / LUX 5 0.30 lux
3827 06/09/2026 23:03:00 MB-L5-01Mainboard Lantai 5 L5-RAD-02 Radiation 2 1.00 W/m²
3828 06/09/2026 23:03:00 MB-L5-01Mainboard Lantai 5 L5-HFT-01 Heat Flow Temperature 1 24.70 °C
3829 06/09/2026 23:03:00 MB-L5-01Mainboard Lantai 5 L5-LUX-04 Illuminance / LUX 4 0.10 lux
3830 06/09/2026 23:03:00 WS-MOD-01Weather Station Module WS-RH Kelembapan Udara 75.00 %RH
3831 06/09/2026 23:03:00 MB-L5-01Mainboard Lantai 5 L5-RAD-01 Radiation 1 1.00 W/m²
3832 06/09/2026 23:03:00 MB-L5-01Mainboard Lantai 5 L5-AI-01 Analog Input 1 3.05 V
3833 06/09/2026 23:03:00 MB-L5-01Mainboard Lantai 5 L5-LUX-02 Illuminance / LUX 2 0.10 lux
3834 06/09/2026 23:03:00 PWR-L5-01Power Meter L5 PZEM 01 PZEM-L5-01-FREQ PZEM L5-01 Frequency 50.00 Hz
3835 06/09/2026 23:03:00 PWR-L5-02Power Meter L5 PZEM 02 PZEM-L5-02-ENERGY PZEM L5-02 Energy 0.04 kWh
3836 06/09/2026 23:03:00 MB-L3-01Mainboard Lantai 3 L3-LUX-01 Illuminance / LUX 1 0.20 lux
3837 06/09/2026 23:03:00 MB-L5-01Mainboard Lantai 5 L5-LUX-06 Illuminance / LUX 6 0.10 lux
3838 06/09/2026 23:03:00 MB-L3-01Mainboard Lantai 3 L3-AI-02 Analog Input 2 3.12 V
3839 06/09/2026 23:03:00 MB-L5-01Mainboard Lantai 5 L5-AI-04 Analog Input 4 3.05 V
3840 06/09/2026 23:02:00 MB-L5-01Mainboard Lantai 5 L5-AI-02 Analog Input 2 3.05 V
3841 06/09/2026 23:02:00 PWR-L5-01Power Meter L5 PZEM 01 PZEM-L5-01-VOLT PZEM L5-01 Voltage 227.30 V
3842 06/09/2026 23:02:00 AC-REMOTE-01Remote AC AC-MODE AC Operating Mode 1.00 code
3843 06/09/2026 23:02:00 MB-L3-01Mainboard Lantai 3 L3-SHT-01-T SHT20 1 Temperature 29.00 °C
3844 06/09/2026 23:02:00 MB-L3-01Mainboard Lantai 3 L3-SHT-02-T SHT20 2 Temperature 29.20 °C
3845 06/09/2026 23:02:00 PWR-L5-02Power Meter L5 PZEM 02 PZEM-L5-02-PF PZEM L5-02 Power Factor 0.00
3846 06/09/2026 23:02:00 MB-L5-01Mainboard Lantai 5 L5-BGT-01 Black Globe Temperature 1 27.10 °C
3847 06/09/2026 23:02:00 MB-L5-01Mainboard Lantai 5 L5-AI-05 Analog Input 5 3.05 V
3848 06/09/2026 23:02:00 MB-L3-01Mainboard Lantai 3 L3-AI-03 Analog Input 3 3.12 V
3849 06/09/2026 23:02:00 WS-MOD-01Weather Station Module WS-WIND Kecepatan Angin 2.38 m/s
3850 06/09/2026 23:02:00 PWR-L5-01Power Meter L5 PZEM 01 PZEM-L5-01-CURR PZEM L5-01 Current 0.12 A
3851 06/09/2026 23:02:00 MB-L5-01Mainboard Lantai 5 L5-ST-02 Surface Temperature 2 24.30 °C
3852 06/09/2026 23:02:00 MB-L5-01Mainboard Lantai 5 L5-SHT-01-RH SHT20 1 Humidity 45.30 %RH
3853 06/09/2026 23:02:00 PWR-L5-02Power Meter L5 PZEM 02 PZEM-L5-02-CURR PZEM L5-02 Current 0.00 A
3854 06/09/2026 23:02:00 MB-L3-01Mainboard Lantai 3 L3-LUX-06 Illuminance / LUX 6 0.30 lux
3855 06/09/2026 23:02:00 WS-MOD-01Weather Station Module WS-PRES Tekanan Udara 912.00 hPa
3856 06/09/2026 23:02:00 MB-L5-01Mainboard Lantai 5 L5-SHT-02-T SHT20 2 Temperature 29.20 °C
3857 06/09/2026 23:02:00 MB-L3-01Mainboard Lantai 3 L3-LUX-04 Illuminance / LUX 4 0.10 lux
3858 06/09/2026 23:02:00 AC-REMOTE-01Remote AC AC-SETPOINT AC Set Temperature 23.00 °C
3859 06/09/2026 23:02:00 PWR-L5-01Power Meter L5 PZEM 01 PZEM-L5-01-POWER PZEM L5-01 Active Power 10.60 W
3860 06/09/2026 23:02:00 MB-L3-01Mainboard Lantai 3 L3-AI-01 Analog Input 1 3.12 V
3861 06/09/2026 23:02:00 MB-L5-01Mainboard Lantai 5 L5-SHT-03-RH SHT20 3 Humidity 44.90 %RH
3862 06/09/2026 23:02:00 MB-L3-01Mainboard Lantai 3 L3-SHT-02-RH SHT20 2 Humidity 44.50 %RH
3863 06/09/2026 23:02:00 MB-L5-01Mainboard Lantai 5 L5-SHT-01-T SHT20 1 Temperature 29.00 °C
3864 06/09/2026 23:02:00 MB-L3-01Mainboard Lantai 3 L3-SHT-03-RH SHT20 3 Humidity 44.70 %RH
3865 06/09/2026 23:02:00 MB-L5-01Mainboard Lantai 5 L5-LUX-03 Illuminance / LUX 3 0.10 lux
3866 06/09/2026 23:02:00 MB-L5-01Mainboard Lantai 5 L5-SHT-03-T SHT20 3 Temperature 29.20 °C
3867 06/09/2026 23:02:00 MB-L3-01Mainboard Lantai 3 L3-AI-06 Analog Input 6 3.12 V
3868 06/09/2026 23:02:00 MB-L5-01Mainboard Lantai 5 L5-AI-03 Analog Input 3 3.05 V
3869 06/09/2026 23:02:00 MB-L5-01Mainboard Lantai 5 L5-SHT-02-RH SHT20 2 Humidity 44.70 %RH
3870 06/09/2026 23:02:00 PWR-L5-02Power Meter L5 PZEM 02 PZEM-L5-02-FREQ PZEM L5-02 Frequency 50.00 Hz
3871 06/09/2026 23:02:00 MB-L3-01Mainboard Lantai 3 L3-RAD-01 Radiation 1 1.00 W/m²
3872 06/09/2026 23:02:00 PWR-L5-01Power Meter L5 PZEM 01 PZEM-L5-01-ENERGY PZEM L5-01 Energy 0.05 kWh
3873 06/09/2026 23:02:00 MB-L5-01Mainboard Lantai 5 L5-BGT-02 Black Globe Temperature 2 26.90 °C
3874 06/09/2026 23:02:00 PWR-L5-02Power Meter L5 PZEM 02 PZEM-L5-02-VOLT PZEM L5-02 Voltage 227.20 V
3875 06/09/2026 23:02:00 MB-L5-01Mainboard Lantai 5 L5-AI-06 Analog Input 6 3.05 V
3876 06/09/2026 23:02:00 AC-REMOTE-01Remote AC AC-POWER AC Power State 1.00 state
3877 06/09/2026 23:02:00 MB-L3-01Mainboard Lantai 3 L3-AI-04 Analog Input 4 3.12 V
3878 06/09/2026 23:02:00 MB-L3-01Mainboard Lantai 3 L3-LUX-05 Illuminance / LUX 5 0.30 lux
3879 06/09/2026 23:02:00 MB-L5-01Mainboard Lantai 5 L5-RAD-02 Radiation 2 1.00 W/m²
3880 06/09/2026 23:02:00 MB-L5-01Mainboard Lantai 5 L5-HFT-01 Heat Flow Temperature 1 24.70 °C
3881 06/09/2026 23:02:00 MB-L5-01Mainboard Lantai 5 L5-LUX-04 Illuminance / LUX 4 0.10 lux
3882 06/09/2026 23:02:00 WS-MOD-01Weather Station Module WS-RH Kelembapan Udara 74.70 %RH
3883 06/09/2026 23:02:00 MB-L5-01Mainboard Lantai 5 L5-RAD-01 Radiation 1 1.00 W/m²
3884 06/09/2026 23:02:00 MB-L5-01Mainboard Lantai 5 L5-AI-01 Analog Input 1 3.05 V
3885 06/09/2026 23:02:00 MB-L5-01Mainboard Lantai 5 L5-LUX-02 Illuminance / LUX 2 0.10 lux
3886 06/09/2026 23:02:00 PWR-L5-01Power Meter L5 PZEM 01 PZEM-L5-01-FREQ PZEM L5-01 Frequency 50.00 Hz
3887 06/09/2026 23:02:00 PWR-L5-02Power Meter L5 PZEM 02 PZEM-L5-02-ENERGY PZEM L5-02 Energy 0.04 kWh
3888 06/09/2026 23:02:00 MB-L3-01Mainboard Lantai 3 L3-LUX-01 Illuminance / LUX 1 0.20 lux
3889 06/09/2026 23:02:00 MB-L5-01Mainboard Lantai 5 L5-LUX-06 Illuminance / LUX 6 0.10 lux
3890 06/09/2026 23:02:00 MB-L3-01Mainboard Lantai 3 L3-AI-02 Analog Input 2 3.12 V
3891 06/09/2026 23:02:00 MB-L5-01Mainboard Lantai 5 L5-AI-04 Analog Input 4 3.05 V
3892 06/09/2026 23:02:00 MB-L3-01Mainboard Lantai 3 L3-SHT-01-RH SHT20 1 Humidity 44.90 %RH
3893 06/09/2026 23:02:00 MB-L3-01Mainboard Lantai 3 L3-LUX-03 Illuminance / LUX 3 0.20 lux
3894 06/09/2026 23:02:00 PWR-L5-01Power Meter L5 PZEM 01 PZEM-L5-01-PF PZEM L5-01 Power Factor 0.39
3895 06/09/2026 23:02:00 WS-MOD-01Weather Station Module WS-TEMP Suhu Udara 20.50 °C
3896 06/09/2026 23:02:00 AC-REMOTE-01Remote AC AC-FAN AC Fan Speed 0.00 code
3897 06/09/2026 23:02:00 MB-L5-01Mainboard Lantai 5 L5-BGT-03 Black Globe Temperature 3 26.70 °C
3898 06/09/2026 23:02:00 MB-L3-01Mainboard Lantai 3 L3-SHT-03-T SHT20 3 Temperature 29.10 °C
3899 06/09/2026 23:02:00 MB-L5-01Mainboard Lantai 5 L5-LUX-01 Illuminance / LUX 1 0.00 lux
3900 06/09/2026 23:02:00 WS-MOD-01Weather Station Module WS-DIR Arah Angin 86.30 °
Menampilkan maksimal 100 data per halaman